#timestamp,LO_Frequency,Hit,StdDev 
1521378015.4,286047000.8,N
1521378035.2,286046999.0,N
1521378055.0,286046999.1,N
1521378055.9,286046999.1,N
1521378105.8,286047000.9,E
1521378115.7,286047001.2,N
1521378135.6,286046999.3,P
1521378155.4,286046998.3,N
1521378175.2,286046999.0,N
1521378195.1,286046999.0,N
1521378196.0,286046999.0,N
1521378215.8,286047000.9,N
1521378235.7,286046998.2,N
1521378255.5,286047001.0,N
1521378275.3,286047000.4,N
1521378295.2,286046998.3,N
1521378315.0,286047000.7,N
1521378315.9,286047000.7,N
1521378335.7,286046999.7,N
1521378355.6,286047000.6,N
1521378375.4,286046998.2,N
1521378395.3,286046998.8,N
1521378415.1,286046998.2,N
1521378435.8,286046998.3,N
1521378455.7,286046998.1,N
1521378475.5,286047001.2,N
1521378495.4,286047000.3,N
1521378515.2,286046998.6,N
1521378535.0,286046998.7,N
1521378535.9,286046998.7,N
1521378555.8,286047001.2,N
1521378575.6,286046998.8,N
1521378595.5,286046998.1,N
1521378615.3,286046998.7,N
1521378635.1,286047001.0,N
1521378655.9,286047000.0,N
1521378675.7,286047000.4,N
1521378695.5,286046998.8,N
1521378715.4,286046998.7,N
1521378735.2,286046998.7,N
1521378755.1,286046999.1,N
1521378756.0,286046999.1,N
1521378775.8,286046999.2,N
1521378795.6,286046999.4,N
1521378815.5,286046999.0,N
1521378835.3,286046999.5,N
1521378855.1,286046996.9,Y
1521378875.9,286046999.0,P
1521378895.7,286046998.6,P
1521378915.6,286047002.3,P
1521378935.4,286047001.7,N
1521378955.2,286047001.4,N
1521378975.1,286047000.2,N
1521378976.0,286047000.2,N
1521378995.8,286046999.9,N
1521379015.7,286047000.2,N
1521379035.5,286046998.6,N
1521379055.3,286046998.4,N
1521379075.2,286046998.3,N
1521379095.0,286046998.4,N
1521379095.9,286046998.4,N
1521379115.7,286046999.4,N
1521379135.6,286046998.6,N
1521379155.4,286047000.8,N
1521379175.3,286046999.8,N
1521379195.1,286047002.8,N
1521379196.0,286047002.8,N
1521379215.8,286047004.1,N
1521379235.7,286047003.9,N
1521379255.5,286047005.9,Y
1521379275.4,286047003.3,P
1521379295.2,286047004.2,N
1521379315.0,286047002.5,N
1521379315.9,286047002.5,N
1521379335.8,286047001.9,N
1521379355.6,286047002.0,N
1521379375.4,286047004.4,Y
1521379395.3,286047000.6,P
1521379415.1,286046998.2,N
1521379435.9,286046999.5,N
1521379455.7,286046999.5,N
1521379475.5,286046997.0,N
1521379495.4,286046998.8,N
1521379515.2,286046999.5,N
1521379535.0,286046996.9,N
1521379535.9,286046996.9,N
1521379555.8,286046998.9,N
1521379575.6,286046999.2,N
1521379595.5,286046996.5,N
1521379615.3,286046996.5,N
1521379635.1,286046999.0,N
1521379655.9,286046998.4,N
1521379675.7,286046998.4,N
1521379695.5,286046998.6,N
1521379715.4,286047002.7,N
1521379735.2,286047003.7,N
1521379755.1,286047001.9,N
1521379756.0,286047001.9,N
1521379775.8,286047000.0,N
1521379795.6,286047000.8,N
1521379815.5,286046996.5,N
1521379835.3,286047001.2,N
1521379855.2,286047000.9,N
1521379875.9,286046998.5,N
1521379895.7,286046998.4,N
1521379915.6,286047000.9,N
1521379935.4,286047002.8,N
1521379955.2,286047004.4,N
1521379975.1,286047001.3,N
1521379976.0,286047001.3,N
1521379995.8,286047000.1,N
1521380015.7,286047000.9,N
1521380035.5,286047000.8,N
1521380055.3,286046999.9,N
1521380075.2,286046999.9,N
1521380095.0,286047000.1,N
1521380095.9,286047000.1,N
1521380115.7,286047002.8,N
1521380135.6,286046999.8,N
1521380155.4,286047000.2,N
1521380175.3,286047000.2,N
1521380195.1,286046999.8,N
1521380215.8,286047000.3,N
1521380235.7,286047002.4,N
1521380255.5,286047002.0,N
1521380275.3,286047002.1,N
1521380295.2,286047002.2,N
1521380315.0,286047002.4,N
1521380315.9,286047002.4,N
1521380335.8,286047000.4,N
1521380355.6,286046998.3,N
1521380375.4,286046999.5,N
1521380395.3,286046998.4,N
1521380415.1,286047000.0,N
1521380435.9,286047001.0,N
1521380455.7,286047000.7,N
1521380475.5,286047000.3,N
1521380495.4,286047000.1,N
1521380515.2,286047000.3,N
1521380535.1,286047000.3,N
1521380536.0,286047000.3,N
1521380555.8,286047002.8,N
1521380575.6,286047002.7,N
1521380595.5,286047002.3,N
1521380615.3,286047000.1,N
1521380635.1,286047000.9,N
1521380655.9,286046998.1,N
1521380675.7,286047000.8,N
1521380695.6,286046999.4,N
1521380715.4,286046999.1,N
1521380735.2,286046996.8,N
1521380755.1,286046998.8,N
1521380756.0,286046998.8,N
1521380775.8,286047000.5,N
1521380795.6,286047000.1,N
1521380815.5,286047002.3,N
1521380835.3,286046999.9,N
1521380855.2,286047000.5,N
1521380875.9,286047000.7,N
1521380895.7,286046999.0,N
1521380915.6,286047000.8,N
1521380935.4,286046999.8,N
1521380955.2,286047002.3,N
1521380975.1,286047001.7,N
1521380976.0,286047001.7,N
1521380995.8,286047002.8,N
1521381015.7,286047002.3,N
1521381035.5,286047000.7,N
1521381055.3,286046999.9,N
1521381075.2,286047000.6,N
1521381095.0,286047001.0,N
1521381095.9,286047001.0,N
1521381115.7,286047000.6,N
1521381135.6,286046998.1,N
1521381155.4,286046998.1,N
1521381175.3,286047001.1,N
1521381195.1,286047000.9,N
1521381215.8,286047000.8,N
1521381235.7,286046999.4,N
1521381255.5,286046999.5,N
1521381275.4,286046998.9,N
1521381295.2,286046998.7,N
1521381315.0,286046998.9,N
1521381315.9,286046998.9,N
1521381335.8,286046999.0,N
1521381355.6,286047001.1,N
1521381375.5,286047000.0,N
1521381395.3,286047001.0,N
1521381415.1,286047000.8,N
1521381435.9,286047000.4,N
1521381455.7,286047000.0,N
1521381475.5,286047002.3,N
1521381495.4,286047001.0,N
1521381515.2,286047002.7,N
1521381535.1,286047002.2,N
1521381536.0,286047002.2,N
1521381555.8,286047001.4,N
1521381575.6,286047002.1,N
1521381595.5,286047001.9,N
